COSMOS 1275 DEB, 12671

Orbit data source: Space-Track

COSMOS 1275 DEB, 12671 is space debris in LEO originally from a launch on Thu, 04 Jun 1981 UTC launched from the Plesetsk Missile And Space Complex (PKMTR). Debris objects in space refer to the collection of defunct objects orbiting the Earth. Examples of debris include non-operational satellites, rocket bodies, and fragments generated from explosions, collisions, or faulty payload assembly.

Loading next visibility...
Identifier
12671, 1981-053AB
Orbit
LEO
Country
Flag of CISCIS
Related business
Manufacturer
Unknown
Mission
Spacecraft
Bus & Motor
Unknown
Mass
Unknown
Launch date (UTC)
1981-06-04 (45 years ago)
Launch vehicle
Unknown
Launch site
Plesetsk Missile And Space Complex (PKMTR)
Object type
Payload
Rocket body
Debris
Shape & HBR
Unknown shape, 0.1 m
Radar Cross Section
Small (<0.1 m²)

Expand to show TLE details & history
Last TLE update: 14 hours ago

TLE from 14 hours ago
0 COSMOS 1275 DEB
1 12671U 81053AB  26071.87742713  .00002156  00000-0  11768-2 0  9998
2 12671  82.9030 265.4701 0019611 188.2443 171.8414 14.11588055266260
Epoch: 2026-03-12T21:03Z
TLE epoch observation values (Epoch: 2026-03-12T21:03:29.704Z)
Latitude
-0.00002°
Longitude
139.07532°
Altitude
870.935 km
Speed
7.41 km/s
True Right ascension
17h 41m 52s
True Declination
0° 00' 00"
Sunlit
Object was in daylight at epoch
Visualization orbit readout
Latitude
Unknown
Longitude
Unknown
Altitude
Unknown
Speed
Unknown
Apparent Right ascension
Unknown
Apparent Declination
Unknown
Sunlit
N/A
Visualization observer readout
Local Sidereal Time
15:54:42
Azimuth
Unknown
Elevation
Unknown
Doppler factor
Unknown
Orbital elements
Apogee altitude
865.219 km
Perigee altitude
836.865 km
Semi-major axis
7,229.179 km
Eccentricity
0.00196
Inclination
82.903°
RAAN
265.4701°
Arg. of periapsis
188.2443°
True anomaly
171.87321°
Mean anomaly
171.8414°
Eccentric anomaly
171.85731°
Mean motion
3.5311 °/min
Orbital period
101.95 mins
BSTAR
0.0011768
Loading maneuver chart data...
Computing Atmospheric mass density...
Loading historical data...
Loading historical data...
Loading historical data...
Loading historical data...
Loading historical data...
Loading historical data...
Loading historical data...

Documentation

Showing up to 5 results
|